DELTA 1 DEB, 40756

Orbit data source: Space-Track

DELTA 1 DEB, 40756 is space debris in SSO originally from a launch on Thu, 29 Jul 1976 UTC launched from the Air Force Western Test Range (AFWTR). Debris objects in space refer to the collection of defunct objects orbiting the Earth. Examples of debris include non-operational satellites, rocket bodies, and fragments generated from explosions, collisions, or faulty payload assembly.

Loading next visibility...
Identifier
40756, 1976-077FZ
Orbit
SSO
Country
Flag of USUS
Related business
Manufacturer
Unknown
Mission
Spacecraft
Bus & Motor
Unknown
Mass
Unknown
Launch date (UTC)
1976-07-29 (50 years ago)
Launch vehicle
Unknown
Launch site
Air Force Western Test Range (AFWTR)
Object type
Payload
Rocket body
Debris
Shape & HBR
Unknown shape, 0.1 m
Radar Cross Section
Small (<0.1 m²)

Expand to show TLE details & history
Last TLE update: 3 days ago

TLE from 3 days ago
0 DELTA 1 DEB
1 40756U 76077FZ  26123.70672345 -.00000062  00000-0 -14560-3 0  9996
2 40756 102.5705 108.5133 0077593  94.2751  92.2678 12.25957226951082
Epoch: 2026-05-03T16:57Z
TLE epoch observation values (Epoch: 2026-05-03T16:57:40.906Z)
Latitude
-7.39404°
Longitude
170.83627°
Altitude
1,573.388 km
Speed
7.08 km/s
True Right ascension
19h 07m 27s
True Declination
-7° 21' 17"
Sunlit
Object was in daylight at epoch
Visualization orbit readout
Latitude
Unknown
Longitude
Unknown
Altitude
Unknown
Speed
Unknown
Apparent Right ascension
Unknown
Apparent Declination
Unknown
Sunlit
N/A
Visualization observer readout
Local Sidereal Time
02:57:23
Azimuth
Unknown
Elevation
Unknown
Doppler factor
Unknown
Orbital elements
Apogee altitude
1,625.955 km
Perigee altitude
1,502.699 km
Semi-major axis
7,942.464 km
Eccentricity
0.00776
Inclination
102.5705°
RAAN
108.5133°
Arg. of periapsis
94.2751°
True anomaly
93.15588°
Mean anomaly
92.2678°
Eccentric anomaly
92.71188°
Mean motion
3.06627 °/min
Orbital period
117.41 mins
BSTAR
-0.0001456
Loading maneuver chart data...
Computing Atmospheric mass density...
Loading historical data...
Loading historical data...
Loading historical data...
Loading historical data...
Loading historical data...
Loading historical data...
Loading historical data...

Documentation

Showing up to 5 results
|